Skip Page Navigation
NASA JPL Caltech
NASA Logo - Jet Propulsion Laboratory + View the NASA Portal
+ Center for Near-Earth Object Studies
JPL Home Earth Solar System Stars & Galaxies Technology
JPL Solar System Dynamics
BODIES ORBITS EPHEMERIDES TOOLS PHYSICAL DATA DISCOVERY FAQ SITE MAP
JPL Small-Body Database Browser
Search: [ help ]  
163348 (2002 NN4)
Classification: Aten [NEO, PHA]          SPK-ID: 2163348
Ephemeris | Orbit Diagram | Orbital Elements | Mission Design | Physical Parameters | Discovery Circumstances | Close-Approach Data ]

[ hide orbit diagram ]

For accurate long-term ephemerides, please instead use our Horizons system.This orbit viewer was implemented using two-body methods, and hence should not be used for determining accurate long-term trajectories (over several years or decades) or planetary encounter circumstances.


[ revert to old Java-based viewer ]

Orbital Elements at Epoch 2459000.5 (2020-May-31.0) TDB
Reference: JPL 153 (heliocentric ecliptic J2000)
 Element Value Uncertainty (1-sigma)   Units 
e .4345260262356034 5.4179e-08  
a .8763943315760531 1.1281e-09 au
q .4955781852609029 4.6978e-08 au
i 5.41765052454731 4.0138e-06 deg
node 259.4797661815146 1.5321e-05 deg
peri 222.2323412644839 1.4871e-05 deg
M 83.77386284781377 1.2362e-05 deg
tp 2458930.764517939216
(2020-Mar-22.26451794)
1.0243e-05 TDB
period 299.6731043367134
0.82
5.7863e-07
1.584e-09
d
yr
n 1.201309009017717 2.3196e-09 deg/d
Q 1.257210477891203 1.6183e-09 au
  Orbit Determination Parameters
   # obs. used (total)      652  
   data-arc span      6617 days (18.12 yr)  
   first obs. used      2002-07-02  
   last obs. used      2020-08-13  
   planetary ephem.      DE431  
   SB-pert. ephem.      SB431-N16  
   condition code      0  
   norm. resid. RMS      .4964  
   source      ORB  
   producer      Otto Matic  
   solution date      2020-Oct-01 06:49:22  

Additional Information
 Earth MOID = .00693776 au 
 Jupiter MOID = 3.82799 au 
 T_jup = 6.673 
[ show covariance matrix ]

Ephemeris | Orbit Diagram | Orbital Elements | Mission Design | Physical Parameters | Discovery Circumstances | Close-Approach Data ]

Physical Parameter Table
Parameter Symbol Value Units Sigma Reference Notes
absolute magnitude H 20.1   n/a MPO385721  
diameter diameter 0.735 km 0.243 urn:nasa:pds:neowise_diameters_albedos::2.0[neos] (http://adsabs.harvard.edu/abs/2017AJ....154..168M)  
rotation period rot_per 14.50 h n/a LCDB (Rev. 2019-August); Warner et al., 2009 Published Reference List:
[Warner, B.D. (2017) Minor Planet Bull. 44, 22-36.]
geometric albedo albedo 0.030   0.027 urn:nasa:pds:neowise_diameters_albedos::2.0[neos] (http://adsabs.harvard.edu/abs/2017AJ....154..168M)  

163348 (2002 NN4)          Discovered 2002-Jul-09 by LINEAR at Socorro
Reference: 20070926/Numbers.arcLast Updated: 2007-09-30

[ hide close-approach data ]
Close-Approach Data   ...sorted by Date/Time (TDB)
Date/Time (TDB) Time Uncertainty
(days_HH:MM)
Body Nominal Distance (au) Minimum Distance (au) Maximum Distance (au) V-relative (km/s) V-infinity (km/s) JD (TDB) Time Uncertainty (minutes) Semi-major axis (km) Semi-minor axis (km) range-LOV angle (deg) N-sigma BP Orbit Ref. Reference Modified
1902-Apr-01 04:32 00:08 Earth 0.389336421890001 0.389321827781901 0.389351016090721 10.8432489385778 10.8426177770265 2415840.689004427 7.52720023982791 786.960066210464 9.40660548124419 22.4162898385637 897520.890662388 T 153 CATAB v2.0f-lin.ifort 2020-Oct-01 06:49:35 2020-Oct-01 06:50
1902-Jul-15 15:42 00:06 Earth 0.242095935880566 0.242090449709835 0.242101422240945 9.45172764370122 9.45056314123235 2415946.153954294 5.55991600010372 434.84759707438 6.44705862281765 -51.0234466485221 3773060.9222038 T 153 CATAB v2.0f-lin.ifort 2020-Oct-01 06:49:35 2020-Oct-01 06:50
1902-Dec-03 04:24 00:05 Earth 0.428078566136556 0.42806903241876 0.428088099929712 15.3018330693695 15.3014262972428 2416086.683177636 5.39524905726737 553.389569475354 3.97650259012462 30.7977662054983 4484400.76739346 T 153 CATAB v2.0f-lin.ifort 2020-Oct-01 06:49:35 2020-Oct-01 06:50
1904-Sep-17 07:22 00:02 Venus 0.106305238817535 0.106283214180647 0.106327268953926 19.2045915091843 19.2035278041083 2416740.806902362 1.75165220812532 1631.09026711394 9.7912877602051 47.6714573132409 1140580.05359238 T 153 CATAB v2.0f-lin.ifort 2020-Oct-01 06:49:35 2020-Oct-01 06:50
1906-Jun-08 01:57 < 00:01 Earth 0.100739518476044 0.100717346738746 0.100761690249452 15.0524412805134 15.0506840412635 2417369.581573882 0.914562434469907 1109.69939304103 4.81045892238982 4.94848042317371 250315.656740979 T 153 CATAB v2.0f-lin.ifort 2020-Oct-01 06:49:35 2020-Oct-01 06:50
1907-Jan-24 09:24 00:03 Earth 0.493281245403477 0.493280734942883 0.493281755884596 20.7455825969084 20.7453222245705 2417599.891423564 3.09346524414678 165.416768696496 6.12431116697662 -81.4040029854965 8761028.76161454 T 153 CATAB v2.0f-lin.ifort 2020-Oct-01 06:49:35 2020-Oct-01 06:50
1907-Mar-02 08:24 00:01 Venus 0.0753267107663437 0.0753253867233042 0.0753280435920328 15.6854637859736 15.6836257753245 2417636.849670528 1.34368168452792 1295.1070378358 8.517104018583 -87.0893396842617 1292014.01479635 T 153 CATAB v2.0f-lin.ifort 2020-Oct-01 06:49:35 2020-Oct-01 06:50
1907-Sep-10 20:43 < 00:01 Earth 0.117022804298201 0.117007170401135 0.117038439960589 14.0694962500924 14.0678778410861 2417829.362991849 0.649373208348854 1059.1532266446 15.777275274788 -42.610426330494 699867.998047029 T 153 CATAB v2.0f-lin.ifort 2020-Oct-01 06:49:35 2020-Oct-01 06:50
1909-Aug-14 13:17 < 00:01 Venus 0.103279464173022 0.103264779673693 0.103294150355121 12.349506929371 12.3478042405229 2418533.053569514 0.920977482165058 984.133429457713 6.5644439517066 -41.9097937303141 1658695.54483649 T 153 CATAB v2.0f-lin.ifort 2020-Oct-01 06:49:35 2020-Oct-01 06:50
1911-Mar-19 20:50 00:02 Earth 0.423266548283809 0.423262404691051 0.423270691914557 13.6481873397297 13.647726095683 2419115.367755806 2.42339039743231 287.590141862318 4.62262452206793 44.088927411619 5182776.08341694 T 153 CATAB v2.0f-lin.ifort 2020-Oct-01 06:49:35 2020-Oct-01 06:50
1911-Jul-26 18:00 00:02 Earth 0.248749896648425 0.248749370975807 0.248750422411369 9.50353672812082 9.50240955675939 2419244.249883277 2.11473674661892 245.416522194142 6.50550112805512 -84.0577466826154 4019198.98467415 T 153 CATAB v2.0f-lin.ifort 2020-Oct-01 06:49:35 2020-Oct-01 06:50
1911-Nov-22 11:58 00:02 Earth 0.399207116696796 0.399201956066601 0.399212277359373 13.013155671854 13.0126427632132 2419362.998770062 2.41493385023787 313.650349337684 5.4482551076979 34.8877325389548 3382498.33872684 T 153 CATAB v2.0f-lin.ifort 2020-Oct-01 06:49:35 2020-Oct-01 06:50
1915-Jun-06 18:20 < 00:01 Earth 0.0220748930478661 0.0220716269079753 0.0220781592762413 12.6685992361576 12.6590680148773 2420655.263800766 0.0839052653732205 177.168982876786 2.40377707673829 23.1891062142978 528540.871317109 T 153 CATAB v2.0f-lin.ifort 2020-Oct-01 06:49:35 2020-Oct-01 06:50
1916-Jan-17 02:36 < 00:01 Earth 0.490771343881395 0.490770663027704 0.490772024740694 20.6557513631225 20.6554885210238 2420879.608588910 0.350438064895009 90.651385149303 5.93926839691892 -68.3131008991813 8319094.63833997 T 153 CATAB v2.0f-lin.ifort 2020-Oct-01 06:49:35 2020-Oct-01 06:50
1916-Sep-08 03:08 < 00:01 Earth 0.172782770598463 0.172779931586662 0.172785609630516 16.335410247368 16.3344661986068 2421114.630375042 0.123189090816286 172.624274244415 46.5161132611086 36.4559206453923 325483.862167742 T 153 CATAB v2.0f-lin.ifort 2020-Oct-01 06:49:35 2020-Oct-01 06:50
1920-Mar-13 05:57 00:02 Earth 0.437191369937788 0.437187745486855 0.43719499438877 14.8646046788151 14.8641946698035 2422396.747744568 2.14963574090603 180.874677114094 10.4030621041319 2.45122377598255 227331.667091889 T 153 CATAB v2.0f-lin.ifort 2020-Oct-01 06:49:35 2020-Oct-01 06:50
1920-Jul-31 19:59 00:02 Earth 0.247261711437465 0.247259557310165 0.24726386557012 9.42529207056719 9.42414869999168 2422537.332470560 2.41000432611014 121.893818312138 9.34728808594732 -28.3048943220234 1612117.04284405 T 153 CATAB v2.0f-lin.ifort 2020-Oct-01 06:49:35 2020-Oct-01 06:50
1920-Nov-15 16:31 00:03 Earth 0.380823096922041 0.380817750044786 0.380828443816484 11.6389343156975 11.6383331598513 2422644.188358122 3.04175134627507 295.625324250854 5.84710663887896 25.6313166083113 1640046.73203297 T 153 CATAB v2.0f-lin.ifort 2020-Oct-01 06:49:35 2020-Oct-01 06:50
1924-Jun-05 22:03 < 00:01 Earth 0.0115393923766838 0.0115213194893724 0.0115574912130861 12.338254200764 12.3195255952726 2423942.418632757 0.203577356488907 1248.63866939995 4.00750393106162 43.7638021434274 292821.067726568 T 153 CATAB v2.0f-lin.ifort 2020-Oct-01 06:49:35 2020-Oct-01 06:50
1925-Jan-16 01:14 00:04 Earth 0.489279637499797 0.489278397074572 0.489280877926581 20.5590572124813 20.5587923290356 2424166.551431459 3.73982570206906 75.6003848983103 5.05548830789671 -35.1898520396812 6144969.26198772 T 153 CATAB v2.0f-lin.ifort 2020-Oct-01 06:49:35 2020-Oct-01 06:50
1925-Sep-08 21:45 00:01 Earth 0.17111594709658 0.171093771414737 0.171138123960232 16.2725428555069 16.2715859276064 2424402.406399907 1.29898605644311 1313.70583934 11.0209014095172 -32.6776366978711 1138358.55971851 T 153 CATAB v2.0f-lin.ifort 2020-Oct-01 06:49:35 2020-Oct-01 06:50
1929-Mar-20 10:28 00:05 Earth 0.419593778558527 0.419584760590244 0.419602796573105 13.4098514435931 13.4093778923094 2425690.936400042 5.10668474214966 500.520482826503 6.07796666436668 26.0688876803674 2199029.16335629 T 153 CATAB v2.0f-lin.ifort 2020-Oct-01 06:49:35 2020-Oct-01 06:50
1929-Jul-25 04:58 00:05 Earth 0.251209618643765 0.251209326332814 0.251209911006665 9.48600921891494 9.48489102236518 2425817.706898297 4.81752665724884 201.423582926418 6.4496043576225 -86.2762762680685 4064556.28078474 T 153 CATAB v2.0f-lin.ifort 2020-Oct-01 06:49:35 2020-Oct-01 06:50
